Regional Weather Roundup
Issued by NWS Wakefield, VA

Home | Current Version | Previous Version | Text Only | Print | Product List | Glossary On
Versions: 1 2 3 4 5 6 7 8 9 10 11 12 13 14 15 16 17 18 19 20 21 22 23 24 25 26 27 28 29 30 31 32 33 34 35 36 37 38 39 40 41 42 43 44 45 46 47 48 49 50
466
ASUS41 KAKQ 182216
RWRAKQ

REGIONAL WEATHER ROUNDUP
NATIONAL WEATHER SERVICE WAKEFIELD VA
500 PM EST MON NOV 18 2019

Note: "fair" indicates few or no clouds below 12,000 feet with no
significant weather and/or obstructions to visibility. * = Denotes
station may not report precipitation (e.g., rain,snow,etc.),
thunder or fog.

VAZ042-051-052>054-056-182300-
NORTHERN VIRGINIA

CITY           SKY/WX    TMP DP  RH WIND       PRES   REMARKS
WASH NATIONAL  MOCLDY    45  39  79 NW8       29.76S
DULLES         MOCLDY    41  37  86 CALM      29.75F
FORT BELVOIR   FAIR      45  38  78 NW3       29.75F
QUANTICO       CLOUDY    46  32  58 E3        29.78S
FREDERICKSBRG* CLOUDY    48  42  80 CALM      29.75S
STAFFORD*      CLOUDY    47  40  75 CALM      29.80R
WARRENTON      CLOUDY    47  37  66 CALM      29.75R
CULPEPER*      MOCLDY    46  37  70 CALM      29.76S
MANASSAS*      CLOUDY    45  37  76 N5        29.76F
LEESBURG*      CLOUDY    39  37  93 CALM      29.76F
WINCHESTER     FAIR      37  34  87 CALM      29.72S
FRONT ROYAL*   MOCLDY    41  37  87 NE3       29.73S
LURAY*         CLOUDY    45  37  76 CALM      29.72S
$$

VAZ048-049-060>072-079>083-182300-
CENTRAL AND SOUTH CENTRAL VIRGINIA

CITY           SKY/WX    TMP DP  RH WIND       PRES   REMARKS
RICHMOND       CLOUDY    50  40  68 CALM      29.75F
CHESTERFIELD*  CLOUDY    50  41  71 CALM      29.76S
PETERSBURG*    LGT RAIN  49  42  75 CALM      29.77R
HANOVER        CLOUDY    48  41  76 CALM      29.76F
TAPPAHANNOCK*  CLOUDY    46  44  90 CALM      29.77S
QUINTON*       CLOUDY    48  42  80 CALM      29.75S
CHARLOTTSVILLE LGT RAIN  49  39  68 CALM      29.74R
GORDONSVILLE*  CLOUDY    47  40  77 CALM      29.74F
ORANGE*        CLOUDY    46  37  71 CALM      29.75S
LOUISA*        CLOUDY    46  40  80 CALM      29.79S
BUMPASS*       CLOUDY    46  45  96 CALM      29.75S
FARMVILLE*     LGT RAIN  43  43  98 S3        29.75S
CREWE*         CLOUDY    44  41  91 CALM      29.76R
FORT PICKETT*  CLOUDY    46  46 100 W5        29.76S
CHASE CITY*    CLOUDY    43  42  97 CALM      29.77S
CLARKSVILLE*   CLOUDY    43  43 100 CALM      29.77S
SOUTH HILL*    CLOUDY    44  42  93 CALM      29.82S
LAWRENCEVILLE* CLOUDY    45  44  97 CALM      29.76F
EMPORIA*       CLOUDY    46  45  93 CALM      29.78F
$$

VAZ088>098-182300-
SOUTHEAST VIRGINIA

CITY           SKY/WX    TMP DP  RH WIND       PRES   REMARKS
NORFOLK        CLOUDY    48  42  80 W6        29.77R
VIRGINIA BEACH CLOUDY    46  43  89 NW5       29.76R
NORFOLK NAVAL  CLOUDY    47  42  83 W7        29.79R
WEST POINT*    CLOUDY    48  43  82 CALM      29.78S
SALUDA*        CLOUDY    46  44  90 CALM      29.77R
NEWPORT NEWS   CLOUDY    48  40  73 SW7       29.77R
LANGLEY AFB    NOT AVBL
FORT EUSTIS    CLOUDY    46  41  81 W3        29.75R
WILLIAMSBURG*  MOCLDY    50  43  76 CALM      29.77S
HR EXEC AP*    CLOUDY    44  42  93 CALM      29.79R
FRANKLIN*      DRIZZLE   46  45  95 CALM      29.78S
US460-WAKEFLD  LGT RAIN  48  42  80 CALM      29.77R
$$

VAZ020-022-025-037-045-182300-
WEST CENTRAL AND SOUTHWEST VIRGINIA

CITY           SKY/WX    TMP DP  RH WIND       PRES   REMARKS
STAUNTON*      LGT RAIN  46  40  81 S3        29.73F
WAYNESBORO*    CLOUDY    45  41  87 CALM      29.72S
HOT SPRINGS VA CLOUDY    38  38 100 CALM      29.69S
LYNCHBURG      LGT RAIN  44  43  96 S3        29.75S FOG
DANVILLE       CLOUDY    44  44 100 CALM      29.76S
SOUTH BOSTON*  CLOUDY    44  42  95 CALM      29.77S
MARTINSVILLE   CLOUDY    44  44 100 CALM      29.77R
ROANOKE        MOCLDY    44  42  93 CALM      29.75F
BLACKSBURG     CLOUDY    42  42 100 CALM      29.76R
DUBLIN*        FAIR      42  41  97 SE3       29.74S
MARION*        CLOUDY    50  38  63 NW3       29.74R
HILLSVILLE*    FAIR      42  41  96 E3        29.70S
RICHLANDS*     CLOUDY    47  28  48 CALM      29.71S
WISE*          CLOUDY    48  30  49 NW3       29.72S
ABINGDON*      MOCLDY    51  25  35 W8        29.70S
$$

MDZ021>025-VAZ099-100-182300-
SOUTHERN MARYLAND AND THE DELMARVA PENINSULA

CITY           SKY/WX    TMP DP  RH WIND       PRES   REMARKS
PATUXENT RIVER MOCLDY    46  40  79 CALM      29.76R
BAY BRIDGE APT FAIR      43  37  81 CALM      29.76R
LEONARDTOWN    CLOUDY    45  37  76 W3        29.78R
DOVER          CLOUDY    42  37  83 N3        29.73R
GEORGETOWN     CLOUDY    45  40  82 E5        29.74R
EASTON         CLEAR     45  39  81 CALM      29.78R
CAMBRIDGE      MOCLDY    43  39  87 CALM      29.75R
SALISBURY      CLOUDY    47  39  74 N3        29.74R
TANGIER        NOT AVBL
OCEAN CITY     CLOUDY    45  41  86 NW3       29.75R
WALLOPS ISLAND CLOUDY    46  42  86 E3        29.75R
ACCOMACK*      NOT AVBL
$$

NCZ012>017-030>032-182300-
NORTH CENTRAL AND EASTERN NORTH CAROLINA

CITY           SKY/WX    TMP DP  RH WIND       PRES   REMARKS
ROANOKE RAPIDS DRIZZLE   43  43 100 CALM      29.77S
RALEIGH        CLOUDY    45  43  93 CALM      29.77S FOG
ELIZABETH CITY CLOUDY    46  44  93 W8        29.78R
AHOSKIE*       LGT RAIN  45  45 100 CALM      29.78S
EDENTON*       CLOUDY    49  46  92 NW3       29.79R
CURRITUCK*     CLOUDY    46  46  97 W5        29.77S
KILL DEVIL HLS CLOUDY    47  45  95 CALM      29.76R
MANTEO         CLOUDY    47  45  91 NW5       29.77S
CAPE HATTERAS  CLOUDY    50  48  93 NW7       29.77R
TARBORO*       LGT RAIN  45  44  95 CALM      29.77S FOG
GOLDSBORO      LGT RAIN  45  44  94 NW2       29.75F FOG
WASHINGTON     RAIN      46  44  93 NE5       29.76F
GREENVILLE     DRIZZLE   45  45 100 CALM      29.81R
NEW BERN       CLOUDY    47  45  93 NW3       29.79R
WILMINGTON     CLOUDY    49  46  90 N3        29.78R
$$

VAZ048-182300-
ELSEWHERE

CITY           SKY/WX    TMP DP  RH WIND       PRES   REMARKS
HARRISBURG PA  MOCLDY    45  36  70 W6        29.73R
BALTIMORE      MOCLDY    50  39  66 W8        29.74R
ANNAPOLIS      MOCLDY    45  39  79 S3        29.76R
ANDREWS AFB    FAIR      45  38  76 W6        29.74R
PHILADELPHIA   CLOUDY    43  36  76 N8        29.74S
HENDERSON NC   LGT RAIN  41  40  97 CALM      29.76S
GREENSBORO     CLOUDY    44  43  96 CALM      29.74F
ROCKY MOUNT    LGT RAIN  46  44  93 NW3       29.78R
$$

VAZ100-182300-
MARINE

STATION/POSITION TIME  TEMP    WIND        PRES    WAVE   SWELL
                       AIR SEA DIR/SP/G            HT/PER HT/PER
                 (UTC) (F)     (DEG/KT/KT) (MB)    (FT/S) (FT/S)
CAPE MAY NJ      2130   43 48  330/  4/  6 1006.6R
LEWES DE         2130   43 44  320/ 10/ 11 1007.1R
15NM E FENWICK I 2150   46 58  340/ 10/ 14 1004.9R  10/12  10/12
OCEAN-CITY-INLET 2130           20/  6/  7 1007.5R
44089 WALLOPS IS 2130      55                N/A     8/12   7/12
WACHAPREAGUE VA  2130   47 49  310/  2/  5 1007.0R
THOMAS POINT MD  2200   46 50     CALM     1008.5R
GOOSES REEF MD   2142   46      30/  4/  6 1008.2R
SOLOMONS ISLAND  2130   46 51  340/  4/  5 1007.1R
BISHOPS HEAD MD  2124   45 48  300/  7/  9 1007.4R
PINEY POINT MD   2124          280/  7/  9   N/A
POTOMAC MD       2154   46 52  250/  6/  8 1010.5R
CAMBRIDGE MD     2130          230/  4/  5 1007.2R
LEWISETTA VA     2130          260/  2/  2 1007.6R
RAPPAHANNOCK LGT 2130          310/  8/ 11 1008.1R
YORK RVR RNG VA  2130   48     210/  3/  4 1008.2R
JAMESTOWN VA     2154   48 50              1008.2R
DOMINION TERM VA 2130          270/ 10/ 11 1008.1R
KIPTOPEKE VA     2124      50  360/  8/ 11   N/A
CAPE HENRY VA    2130   47     280/  8/ 10 1007.7R
WILLOUBY STN VA  2130          250/  9/ 10 1007.3R
S CRANEY ISL VA  2130   46     270/  4/  6 1007.8R
CAPE HENRY BUOY  2200      58                N/A     6/11   3/11
1ST LANDING BUOY 2140   47     300/  8/ 10 1007.6R
64NM E OF VA BCH 2150   52 61  350/ 12/ 14 1007.0R  11/13  11/13
DUCK PIER NC     2130   47 54  300/  7/ 10 1007.3R
44100 DUCK FRF   2200      59                N/A    10/13   8/13
44056 DUCK FRF   2130      57                N/A     8/12   5/12
OREGON INLET NC  2124   49 56  300/  6/ 10 1007.3
HATTERAS NC      2130          310/  7/  9 1007.3F
DIAMOND SHLS NC  2150   52 64  330/ 14/ 19 1006.7F  10/15  10/15
CAPE LOOKOUT NC  2100   49     340/  6/  7 1008.5R
$$




USA.gov is the U.S. government's official web portal to all federal, state and local government web resources and services.